User: anonymous
Location: Deer Lodge Site
(39.6809°N, 119.9392°W)
Time: 12:36:02
(UTC-07:00)
Language:

CZ-4C R/B - Orbit

View from above orbital plane
View from above orbital plane
View from above satellite
View from above satellite

Ground track
Ground track

The orbit data is extracted from the following two-line orbital elements,

1 36416U 10009D   14211.54220965 -.00000035  00000-0  52725-4 0  7275
2 36416 063.4477 204.0855 0284282 000.4003 359.7211 13.69419206220216
Epoch (UTC): 30 July 2014 13:00:46
Eccentricity: 0.0284282
inclination: 63.4477°
perigee height: 792 km
apogee height: 1211 km
right ascension of ascending node: 204.0855°
argument of perigee: 0.4003°
revolutions per day: 13.69419206
mean anomaly at epoch: 359.7211°
orbit number at epoch: 22021

The dashed part of the orbit path shows where the satellite is in the earth's shadow,  

DLR